Glens Falls, NY

1:05 AM EST on December 10, 2019 (GMT -0500)
Bennett Memorial

Weather History for KGFL - October, 2019

Change the Weather History Date:

Tuesday, October 15, 2019

  Actual Average Record
Temperature  
Mean Temperature 46 °F 47 °F  
Max Temperature 59 °F 59 °F 83 °F (1897)
Min Temperature 32 °F 35 °F 22 °F (2002)
Degree Days  
Heating Degree Days 20 18  
Month to date heating degree days 235  
Since 1 July heating degree days 520  
Cooling Degree Days 0 0  
Month to date cooling degree days 0  
Year to date cooling degree days 351  
Moisture  
Dew Point 34 °F    
Average Humidity 64    
Maximum Humidity 93    
Minimum Humidity 36    
Precipitation  
Precipitation 0.00 in 0.12 in 1.18 in (1915)
Month to date precipitation 1.74  
Year to date precipitation 30.93  
Sea Level Pressure  
Sea Level Pressure 30.10 in    
Wind  
Wind Speed 2 mph (South)    
Max Wind Speed 12 mph    
Max Gust Speed -    
Visibility 10 miles    
Events      
T = Trace of Precipitation, MM = Missing Value Source: NWS Daily Summary

Daily Weather History Graph

Daily Weather History Graph

Search for Another Location

Airport or City:

Astronomy

Oct. 15, 2019 Rise Set
Actual Time 7:08 AM EDT 6:11 PM EDT
Civil Twilight 6:39 AM EDT 6:40 PM EDT
Nautical Twilight 6:06 AM EDT 7:13 PM EDT
Astronomical Twilight 5:33 AM EDT 7:46 PM EDT
Moon 7:28 PM EDT (10/15) 8:37 AM EDT (10/15)
Length of Visible Light 12h 01m
Length of Day
11h 03m
Full, 97% of the Moon is Illuminated
Oct 15
Full
Oct 21
Last Quarter
Oct 27
New
Nov 4
First Quarter
Nov 12
Full

Hourly Weather History & Observations

Time (EDT) Temp. Dew Point Humidity Pressure Visibility Wind Dir Wind Speed Gust Speed Precip Events Conditions
12:53 AM - - N/A% 30.06 in - North - - N/A   Unknown
1:53 AM - - N/A% 30.08 in - North - - N/A   Unknown
2:53 AM - - N/A% 30.08 in - North - - N/A   Unknown
3:53 AM - - N/A% 30.09 in - North - - N/A   Unknown
4:53 AM - - N/A% 30.11 in - North - - N/A   Unknown
5:53 AM - - N/A% 30.12 in - North - - N/A   Unknown
6:53 AM - - N/A% 30.13 in - North - - N/A   Unknown
7:53 AM 32.0 °F 30.0 °F 92% 30.16 in 10.0 mi Calm Calm - N/A   Clear
8:53 AM 42.1 °F 37.0 °F 82% 30.18 in 10.0 mi Calm Calm - N/A   Clear
9:53 AM 48.0 °F 37.9 °F 68% 30.16 in 10.0 mi Calm Calm - N/A   Clear
10:53 AM 52.0 °F 37.0 °F 57% 30.15 in 10.0 mi Calm Calm - N/A   Clear
11:53 AM 55.0 °F 32.0 °F 42% 30.14 in 10.0 mi Calm Calm - N/A   Clear
12:53 PM 57.0 °F 32.0 °F 39% 30.12 in 10.0 mi SSW 9.2 mph - N/A   Clear
1:53 PM 57.9 °F 30.9 °F 36% 30.10 in 10.0 mi Variable 3.5 mph - N/A   Clear
2:53 PM 57.9 °F 33.1 °F 39% 30.08 in 10.0 mi SSE 10.4 mph - N/A   Clear
3:53 PM 59.0 °F 34.0 °F 39% 30.06 in 10.0 mi SSW 8.1 mph - N/A   Clear
4:53 PM 57.0 °F 35.1 °F 44% 30.05 in 10.0 mi South 11.5 mph - N/A   Clear
5:53 PM 54.0 °F 36.0 °F 51% 30.06 in 10.0 mi South 5.8 mph - N/A   Clear
6:53 PM 46.9 °F 36.0 °F 66% 30.06 in 10.0 mi Calm Calm - N/A   Clear
7:53 PM 41.0 °F 35.1 °F 79% 30.09 in 10.0 mi Calm Calm - N/A   Clear
8:53 PM 37.9 °F 34.0 °F 86% 30.09 in 10.0 mi Calm Calm - N/A   Clear
9:53 PM 36.0 °F 34.0 °F 93% 30.09 in 10.0 mi Calm Calm - N/A   Clear
10:53 PM 35.1 °F 33.1 °F 92% 30.09 in 10.0 mi Calm Calm - N/A   Clear
11:53 PM 35.1 °F 32.0 °F 89% 30.07 in 10.0 mi Calm Calm - N/A   Clear